Regional Weather Roundup
Issued by NWS

Home | Current Version | Previous Version | Graphics & Text | Print | Product List | Glossary On
Versions: 1 2 3 4 5 6 7 8 9 10 11 12 13 14 15 16 17 18 19 20 21 22 23 24 25 26 27 28 29 30 31 32 33 34 35 36 37 38 39 40 41 42 43 44 45 46 47 48 49 50
000
ASUS43 KDTX 280210
RWRMI
MICHIGAN HOURLY REGIONAL WEATHER ROUNDUP
NATIONAL WEATHER SERVICE DETROIT/PONTIAC MI
900 PM EST SAT DEC 27 2014

NOTE: "FAIR" INDICATES FEW OR NO CLOUDS BELOW 12,000 FEET WITH NO
SIGNIFICANT WEATHER AND/OR OBSTRUCTION TO VISIBILITY.

MIZ047>049-052>055-059>063-066>070-074>076-081>083-280300-
SOUTHEAST LOWER MICHIGAN

CITY           SKY/WX    TMP DP  RH WIND       PRES   REMARKS
ADRIAN         CLOUDY    40  33  76 W9        30.01R
ALMA           CLOUDY    37  32  85 W17       29.96R
ANN ARBOR      LGT RAIN  40  33  76 W14       29.98S
BAD AXE        CLOUDY    39  34  82 W21G26    29.90R
DETROIT CITY   LGT RAIN  49  38  65 W13G23    29.95R
DETROIT        CLOUDY    45  35  68 W23G29    29.97R
FLINT          CLOUDY    40  32  73 W18       29.97R
GROSSE ILE     CLOUDY    48  43  81 W9G20     29.95S
HILLSDALE      MIX PCPN  37  35  94 W9        30.00R
HOWELL         CLOUDY    37  33  85 W9G18     29.97S

CITY           SKY/WX    TMP DP  RH WIND       PRES   REMARKS
JACKSON        CLOUDY    37  32  82 W12       30.00R
LAMBERTVILLE   CLOUDY    45  37  76 W9G18     29.99F
LANSING        CLOUDY    37  30  75 W18       29.99S
LAPEER         NOT AVBL
MASON          CLOUDY    37  31  81 W12G18    29.99S
MONROE         CLOUDY    46  39  76 W17       29.97S
MT. CLEMENS    LGT RAIN  46  39  76 W21       29.91R
PONTIAC        CLOUDY    39  32  76 W23G30    29.95S
PORT HOPE        N/A     41  33  73 W15G25    29.86R
PORT HURON     CLOUDY    46  39  76 W14G24    29.92R
TRI CITIES     CLOUDY    40  33  76 W15G25    29.95R
YPSILANTI      CLOUDY    46  34  62 W20       29.97S
$$
MIZ043>046-050>051-056>058-064>065-071>073-077>080-280300-
SOUTHWEST LOWER MICHIGAN

CITY           SKY/WX    TMP DP  RH WIND       PRES   REMARKS
BATTLE CREEK   CLOUDY    37  30  75 W20G28    30.03R
BENTON HARBOR  CLOUDY    35  30  82 W14       30.08R
BIG RAPIDS     CLOUDY    35  34  95 W10G16    29.93F
COLDWATER      CLOUDY    36  34  93 W8        30.03R
HOLLAND        CLOUDY    38  29  70 W15G23    30.03S
GRAND RAPIDS   CLOUDY    36  29  75 W15G26    30.00R
KALAMAZOO      CLOUDY    36  30  79 W10G22    30.04R
MARSHALL       CLOUDY    35  32  86 W13G20    30.01R
MUSKEGON       CLOUDY    37  31  78 W13       30.00S
$$
MIZ016>042-280300-
NORTHERN LOWER MICHIGAN

CITY           SKY/WX    TMP DP  RH WIND       PRES   REMARKS
ALPENA         CLOUDY    33  29  85 NW13G21   29.86R
BEAVER ISLAND  CLOUDY    32  27  81 NW8       29.94R
BELLAIRE       CLOUDY    33  30  89 NW7       29.95R
CADILLAC       LGT SNOW  32  30  93 NW9       29.93R
CHARLEVOIX     CLOUDY    32  28  86 NW15G21   29.97R
FRANKFORT      CLOUDY    33  32  96 N7        29.97R
GAYLORD        LGT SNOW  30  28  92 NW10      29.88R FOG
GRAYLING       CLOUDY    33  32  95 W7        29.91R
HARBOR SPRINGS CLOUDY    31  26  83 W14G21    29.92R
HOUGHTON LAKE  LGT SNOW  33  30  88 NW14      29.91R FOG
MANISTEE       CLOUDY    34  30  86 NW9G16    29.98R
OSCODA         LGT RAIN  39  35  85 W16G23    29.86R
PELLSTON       CLOUDY    31  26  82 NW16G23   29.92R
TRAVERSE CITY  LGT SNOW  34  32  92 NW8       29.95R
$$
MIZ007>008-015-280300-
EASTERN UPPER MICHIGAN

CITY           SKY/WX    TMP DP  RH WIND       PRES   REMARKS
KINROSS        CLOUDY    30  28  93 NW21G28   29.84R
MACKINAC ISLAN CLOUDY    31  28  86 NW20G28   29.89R
NEWBERRY       CLOUDY    28  25  87 W7        29.90R
S. S. MARIE    CLOUDY    31  24  75 NW16G30   29.87R
$$
MIZ004>006-011>014-085-280300-
CENTRAL UPPER MICHIGAN

CITY           SKY/WX    TMP DP  RH WIND       PRES   REMARKS
MANISTIQUE     MOCLDY    28  27  96 NW5       29.93S
ESCANABA       MOCLDY    30  25  80 W7        29.95S
MENOMINEE      CLOUDY    32  28  86 W7        29.98R
SAWYER-GWINN   CLOUDY    27  23  86 W5        29.92R
$$
MIZ001>003-009>011-084-280300-
WESTERN UPPER MICHIGAN

CITY           SKY/WX    TMP DP  RH WIND       PRES   REMARKS
IRON MOUNTAIN    N/A     28  23  81 W7        29.93F
HOUGHTON       PTCLDY    22  14  71 W20       29.92R
COPPER HARBOR    N/A     29  22  75 N22G29    29.92R
IRONWOOD       MOCLDY    16  16 100 SW8       29.95F
$$

ABBREVIATIONS USED IN REMARKS
   TC - TEMPERATURE IN CELSIUS
  WCI - WIND CHILL INDEX
   HX - HEAT INDEX
  VSB - VISIBILITY



USA.gov is the U.S. government's official web portal to all federal, state and local government web resources and services.